Location: Landeleau
(48.2273°N, 3.7285°W)
Time: 12:39:02
(UTC+00:00)

Cosmos 1331 Rocket - Pass Details

Date: 30 March 2020
Orbit: 750 x 777 km, 74.0° (Epoch: 27 May)

Event Time Altitude Azimuth Distance (km) Brightness Sun altitude
Rises 19:21:33 0° 336° (NNW) 3,216 7.8 -7.1°
Reaches altitude 10° 19:23:56 10° 335° (NNW) 2,285 7.1 -7.5°
Maximum altitude 19:29:06 79° 250° (WSW) 769 4.1 -8.4°
Drops below altitude 10° 19:34:14 10° 164° (SSE) 2,265 6.1 -9.2°
Sets 19:36:35 0° 163° (SSE) 3,186 6.9 -9.5°
